EW6329 Weather Reports


time (UTC)temp
C
wind
direction
speed
KPH
gust
KPH
rain 1hr
cm
rain 24hr
cm
rain mn
cm
humidity
%
barometer
mb
20260906064600 26 299 0.0 0.0 0.00 0.00 0.00 80 1009.0
20260906063010 26 299 0.0 0.0 0.00 0.00 0.00 80 1009.1
20260906061524 26 299 0.0 0.0 0.00 0.00 0.00 80 1009.3
20260906060037 27 299 0.0 0.0 0.00 0.00 0.00 80 1009.3
20260906054603 27 299 0.0 0.0 0.00 0.00 0.00 80 1009.4
20260906053104 27 298 0.0 0.0 0.00 0.00 0.00 79 1009.4
20260906051512 27 298 0.0 0.0 0.00 0.00 0.00 78 1009.3
20260906050029 27 298 0.0 0.0 0.00 0.00 0.00 78 1009.3
20260906044537 27 299 0.0 0.0 0.00 0.00 0.00 77 1009.3
20260906043050 27 298 0.0 0.0 0.00 0.00 0.00 75 1009.1
20260906041604 28 298 0.0 0.0 0.00 0.00 0.00 73 1009.2
20260906040015 28 298 0.0 0.0 0.00 0.00 0.00 71 1009.2
20260906034536 28 298 0.0 0.0 0.00 0.00 0.00 69 1009.2
20260906033044 28 298 0.0 0.0 0.00 0.00 0.00 69 1009.3
20260906031612 29 298 0.0 0.0 0.00 0.00 0.00 69 1009.2
20260906030010 29 298 0.0 0.0 0.00 0.00 0.00 69 1009.1
20260906024542 29 298 0.0 0.0 0.00 0.00 0.00 68 1009.2
20260906023036 30 298 0.0 0.0 0.00 0.00 0.00 67 1009.1
20260906021546 30 298 0.0 0.0 0.00 0.00 0.00 66 1009.0
20260906020101 30 298 0.0 0.0 0.00 0.00 0.00 65 1008.8
20260906014516 31 298 0.0 0.0 0.00 0.00 0.00 63 1008.7
20260906013022 31 298 0.0 0.0 0.00 0.00 0.00 62 1008.5
20260906011535 32 298 0.0 0.0 0.00 0.00 0.00 59 1008.2
20260906010052 32 298 0.0 0.0 0.00 0.00 0.00 58 1008.1
20260906004604 33 298 0.0 0.0 0.00 0.00 0.00 55 1008.1
20260906003012 33 298 0.0 0.0 0.00 0.00 0.00 54 1008.0
20260906001531 33 298 0.0 0.0 0.00 0.00 0.00 54 1008.1
20260906000048 33 298 0.0 0.0 0.00 0.00 0.00 53 1008.1
20260905234559 33 298 0.0 0.0 0.00 0.00 0.00 54 1008.1
20260905233001 33 298 0.0 0.0 0.00 0.00 0.00 54 1008.1
20260905231515 34 298 0.0 0.0 0.00 0.00 0.00 51 1008.1
20260905230033 34 298 0.0 0.0 0.00 0.00 0.00 49 1008.3
20260905224541 35 297 0.0 1.6 0.00 0.00 0.00 51 1008.2
20260905223054 35 298 0.0 1.6 0.00 0.00 0.00 48 1008.2
20260905221506 35 298 0.0 3.2 0.00 0.00 0.00 50 1008.3
20260905220022 35 298 0.0 3.2 0.00 0.00 0.00 48 1008.4
20260905214531 35 298 0.0 3.2 0.00 0.00 0.00 49 1008.4
20260905213047 36 298 0.0 3.2 0.00 0.00 0.00 48 1008.4
20260905211609 36 298 0.0 3.2 0.00 0.00 0.00 46 1008.4
20260905210010 36 298 0.0 3.2 0.00 0.00 0.00 47 1008.6
20260905204521 36 297 0.0 3.2 0.00 0.00 0.00 49 1008.8
20260905203036 36 298 0.0 3.2 0.00 0.00 0.00 48 1009.0
20260905201553 36 304 0.0 3.2 0.00 0.00 0.00 45 1009.3
20260905200120 36 304 0.0 3.2 0.00 0.00 0.00 46 1009.3
20260905194513 37 304 0.0 4.8 0.00 0.00 0.00 43 1009.4
20260905193025 37 304 0.0 3.2 0.00 0.00 0.00 43 1009.7
20260905191537 37 304 0.0 3.2 0.00 0.00 0.00 44 1009.9
20260905190050 36 304 0.0 3.2 0.00 0.00 0.00 45 1010.0
20260905184609 37 304 0.0 3.2 0.00 0.00 0.00 45 1010.2
20260905183015 36 207 0.0 6.4 0.00 0.00 0.00 46 1010.4
20260905181526 36 300 0.0 3.2 0.00 0.00 0.00 46 1010.5
20260905180038 36 287 0.0 3.2 0.00 0.00 0.00 47 1010.7
20260905174555 35 286 0.0 4.8 0.00 0.00 0.00 49 1010.8
20260905173106 35 280 0.0 4.8 0.00 0.00 0.00 48 1010.8
20260905171510 35 280 0.0 3.2 0.00 0.00 0.00 51 1011.1
20260905170021 34 276 0.0 3.2 0.00 0.00 0.00 54 1011.2
20260905164534 33 276 0.0 3.2 0.00 0.00 0.00 56 1011.4
20260905163047 33 276 0.0 3.2 0.00 0.00 0.00 58 1011.6
20260905161558 33 275 1.6 3.2 0.00 0.00 0.00 60 1011.7
20260905160007 32 276 0.0 3.2 0.00 0.00 0.00 64 1011.9
20260905154519 31 276 0.0 1.6 0.00 0.00 0.00 64 1011.8
20260905153031 31 276 0.0 3.2 0.00 0.00 0.00 67 1011.9
20260905151547 30 276 0.0 3.2 0.00 0.00 0.00 70 1011.9
20260905150054 29 276 0.0 3.2 0.00 0.00 0.00 71 1012.0
20260905144505 28 276 0.0 3.2 0.00 0.00 0.00 74 1011.9
20260905143015 28 276 0.0 3.2 0.00 0.00 0.00 77 1011.8
20260905141530 27 276 0.0 3.2 0.00 0.00 0.00 82 1011.9
20260905140043 26 275 0.0 3.2 0.00 0.00 0.00 85 1011.8
20260905134600 25 275 0.0 0.0 0.00 0.00 0.00 88 1011.8
20260905133005 25 277 0.0 0.0 0.00 0.00 0.00 89 1011.7
20260905131518 25 277 0.0 0.0 0.00 0.00 0.00 89 1011.7
20260905130028 24 277 0.0 0.0 0.00 0.00 0.00 89 1011.6
20260905124543 24 277 0.0 0.0 0.00 0.00 0.00 89 1011.7
20260905123053 24 277 0.0 0.0 0.00 0.00 0.00 88 1011.6
20260905121504 24 277 0.0 0.0 0.00 0.00 0.00 88 1011.4
20260905120017 24 277 0.0 0.0 0.00 0.00 0.00 88 1011.3
20260905114532 24 277 0.0 0.0 0.00 0.00 0.00 87 1011.3
20260905113045 24 277 0.0 0.0 0.00 0.00 0.00 87 1011.1
20260905111557 24 277 0.0 0.0 0.00 0.00 0.00 87 1011.0
20260905110007 25 277 0.0 0.0 0.00 0.00 0.00 86 1011.0
20260905104520 25 277 0.0 0.0 0.00 0.00 0.00 85 1010.9
20260905103034 25 277 0.0 0.0 0.00 0.00 0.00 85 1010.8
20260905101602 25 277 0.0 0.0 0.00 0.00 0.00 84 1010.7
20260905100100 25 277 0.0 0.0 0.00 0.00 0.00 83 1010.8
20260905094510 25 277 0.0 0.0 0.00 0.00 0.00 83 1010.8
20260905093024 25 277 0.0 0.0 0.00 0.00 0.00 83 1010.7
20260905091540 25 277 0.0 0.0 0.00 0.00 0.00 82 1010.7
20260905090051 25 277 0.0 0.0 0.00 0.00 0.00 82 1010.7
20260905084604 25 277 0.0 0.0 0.00 0.00 0.00 81 1010.6
20260905083019 26 277 0.0 0.0 0.00 0.00 0.00 81 1010.6
20260905081529 26 277 0.0 0.0 0.00 0.00 0.00 81 1010.8
20260905080040 26 277 0.0 0.0 0.00 0.00 0.00 80 1010.8
20260905074553 26 277 0.0 0.0 0.00 0.00 0.00 79 1010.7
20260905073003 26 277 0.0 0.0 0.00 0.00 0.00 78 1010.8
20260905071518 26 277 0.0 0.0 0.00 0.00 0.00 78 1010.9
20260905070030 26 277 0.0 0.0 0.00 0.00 0.00 78 1010.9